sat.trackr.live / text

‹ back to catalog

STARLINK-11421 [DTC]

NORAD 61945 · 2024-209G

PAYLOAD ACTIVE UNKNOWN

§ Identity

Operator
Country
US
Launch date
2024-11-14
Launch site
AFWTR
Launch vehicle
Mass (kg)
RCS (m²)

Purposes: comms

External: N2YO · Heavens-Above · Gunter

§ Orbital elements

Epoch: 2026-09-21T20:13:22.991808Z

Period
91.74 min
Inclination
53.1567°
Eccentricity
0.0000776
Mean motion
15.69712510 rev/d
Perigee alt
359.2 km
Apogee alt
360.2 km
Semi-major
6,737.9 km
B*
9.7285e-4
RAAN
124.4677°
Arg perigee
102.1245°
Mean anomaly
257.9860°
Rev number
10,748

§ Raw data

STARLINK-11421 [DTC]1 61945U 24209G   26264.84262722  .00118987  00000+0  97285-3 0  99922 61945  53.1567 124.4677 0000776 102.1245 257.9860 15.69712510107484

JSON: /api/v1/satellites/61945 · /tle

For live sub-satellite position, see the globe view (requires WebGL).

§ Visibility from observer

Set your observer location to see the next 7 days of passes ≥ 10°. The values pass through the URL so the page stays shareable.

No JS? Fill the form by hand. The geolocation button needs JavaScript.